Regional Weather Roundup
Issued by NWS Wakefield, VA

Home | Current Version | Previous Version | Graphics & Text | Print | Product List | Glossary On
Versions: 1 2 3 4 5 6 7 8 9 10 11 12 13 14 15 16 17 18 19 20 21 22 23 24 25 26 27
000
ASUS41 KAKQ 260014
RWRAKQ

REGIONAL WEATHER ROUNDUP
NATIONAL WEATHER SERVICE WAKEFIELD VA
700 PM EST SAT FEB 25 2017

Note: "fair" indicates few or no clouds below 12,000 feet with no
significant weather and/or obstructions to visibility. * = Denotes
station may not report precipitation (e.g., rain,snow,etc.),
thunder or fog.

VAZ042-051-052>054-056-260100-
NORTHERN VIRGINIA

CITY           SKY/WX    TMP DP  RH WIND       PRES   REMARKS
WASH NATIONAL  MOCLDY    55  38  52 NW10      29.63R
DULLES         PTCLDY    52  33  48 NW18G25   29.63R
FORT BELVOIR   PTCLDY    55  37  51 NW14G21   29.63R
QUANTICO       CLOUDY    57  42  57 N10       29.64R
FREDERICKSBRG* CLOUDY    61  36  39 NW16G28   29.61R
STAFFORD*      CLOUDY    55  42  61 NW7       29.66R
WARRENTON      CLEAR     54  32  43 W12G18    29.63R
CULPEPER*      CLEAR     57  34  42 NW7       29.64R
MANASSAS*      PTCLDY    53  35  50 NW12G18   29.64R
LEESBURG*      CLEAR     54  34  47 MISG      29.65R
WINCHESTER     PTCLDY    48  27  43 W12       29.68R
FRONT ROYAL*   CLEAR     52  27  37 W15G30    29.67R
LURAY*         CLEAR     52  28  40 W12G23    29.69R
$$

VAZ048-049-060>072-079>083-260100-
CENTRAL AND SOUTH CENTRAL VIRGINIA

CITY           SKY/WX    TMP DP  RH WIND       PRES   REMARKS
RICHMOND       MOCLDY    62  41  46 NW16G30   29.61R
CHESTERFIELD*  CLOUDY    63  32  31 NW10G16   29.63R
PETERSBURG*    MOCLDY    59  40  49 W7        29.63R
HANOVER        MOCLDY    61  38  42 NW13G18   29.64R
TAPPAHANNOCK*  CLOUDY    62  36  37 W5        29.61R
QUINTON*       NOT AVBL
CHARLOTTSVILLE CLEAR     56  25  30 NW12G29   29.65R
GORDONSVILLE*  NOT AVBL
ORANGE*        CLEAR     54  28  37 SW16G23   29.65R
LOUISA*        PTCLDY    61  34  36 W9G17     29.63R
BUMPASS*       MOCLDY    58  36  42 W7G23     29.63
FARMVILLE*     MOCLDY    59  33  36 NW6       29.65R
CREWE*         FAIR      59  36  41 NW14G30   29.63R
FORT PICKETT*  NOT AVBL
CHASE CITY*    NOT AVBL
CLARKSVILLE*   CLOUDY    61  37  41 NW7       29.66R
SOUTH HILL*    MOCLDY    59  45  61 NW6       29.69R
LAWRENCEVILLE* NOT AVBL
EMPORIA*       CLOUDY    61  43  51 W8        29.63R
$$

VAZ088>098-260100-
SOUTHEAST VIRGINIA

CITY           SKY/WX    TMP DP  RH WIND       PRES   REMARKS
NORFOLK        MOCLDY    65  54  67 NW10G16   29.57R
VIRGINIA BEACH PTCLDY    71  55  56 NW12G26   29.55R
NORFOLK NAVAL  MOCLDY    62  54  74 W16       29.59R
WEST POINT*    CLOUDY    60  52  74 NW6       29.61R
SALUDA*        CLOUDY    59  57  94 NW5       29.59R
NEWPORT NEWS   MOCLDY    61  56  83 NW9       29.59R
LANGLEY AFB    CLOUDY    59  57  94 NW12      29.58R
FORT EUSTIS    CLOUDY    59  55  87 NW13      29.56R
WILLIAMSBURG*  MOCLDY    61  57  88 NW12G18   29.60R
HR EXEC AP*    MOCLDY    66  52  59 NW10G18   29.57R
FRANKLIN*      DRIZZLE   64  52  66 NW9       29.62R
US460-WAKEFLD  PTCLDY    61  55  81 VRB7      29.60R
$$

VAZ020-022-025-037-045-260100-
WEST CENTRAL AND SOUTHWEST VIRGINIA

CITY           SKY/WX    TMP DP  RH WIND       PRES   REMARKS
STAUNTON*      CLEAR     48  24  39 NW10G16   29.74R
WAYNESBORO*    NOT AVBL
HOT SPRINGS VA MOCLDY    34  21  60 W24G35    29.71R WCI  21
LYNCHBURG      PTCLDY    54  28  36 W10G18    29.70R
DANVILLE       PTCLDY    59  27  29 W13G23    29.69R
SOUTH BOSTON*  NOT AVBL
MARTINSVILLE   CLEAR     54  23  30 W3G16     29.77R
ROANOKE        PTCLDY    51  23  33 NW21G33   29.78R
BLACKSBURG     CLEAR     45  26  46 W12G22    29.81R
DUBLIN*        CLEAR     46  25  44 W16G24    29.81R
MARION*        CLEAR     41  23  49 W18G35    29.84R
HILLSVILLE*    CLEAR     44  26  49 W20G28    29.77R
RICHLANDS*     FAIR      36  18  47 CALM      29.88R
WISE*          CLEAR     36  18  48 NW9G20    29.92R
ABINGDON*      PTCLDY    43  21  41 NW13      29.89R
$$

MDZ021>025-VAZ099-100-260100-
SOUTHERN MARYLAND AND THE DELMARVA PENINSULA

CITY           SKY/WX    TMP DP  RH WIND       PRES   REMARKS
PATUXENT RIVER MOCLDY    54  47  77 N13       29.62R
BAY BRIDGE APT CLOUDY    52  41  66 NW9       29.63R
LEONARDTOWN    MOCLDY    54  43  66 NW5       29.65R
DOVER          CLOUDY    54 N/A N/A NW15      29.61R
GEORGETOWN     LGT RAIN  55  51  86 NW8       29.62R
EASTON         MOCLDY    55  43  62 N12G18    29.66
CAMBRIDGE      CLOUDY    54  46  76 N10       29.63R
SALISBURY      LGT RAIN  53  50  89 NW15G22   29.58R
OCEAN CITY     RAIN      56  52  86 N16G35    29.57F FOG
WALLOPS ISLAND MOCLDY    59  56  89 W16G23    29.57R
ACCOMACK*      MOCLDY    58  55  88 W10G23    29.57S
$$

NCZ012>017-030>032-260100-
NORTH CENTRAL AND EASTERN NORTH CAROLINA

CITY           SKY/WX    TMP DP  RH WIND       PRES   REMARKS
ROANOKE RAPIDS RAIN      63  46  55 W8G17     29.64R
RALEIGH        PTCLDY    68  41  37 NW9G17    29.66R
ELIZABETH CITY CLEAR     68  60  75 S14G26    29.57R
AHOSKIE*         N/A     65  50  57 NW7       29.60R
EDENTON*       CLEAR     70  62  73 S15       29.59R
CURRITUCK*     CLEAR     69  58  67 S7        29.56R
KILL DEVIL HLS NOT AVBL
MANTEO         CLEAR     64  62  91 SW20      29.60R
CAPE HATTERAS  CLEAR     71  63  75 SW21G30   29.64S HAZE
TARBORO*       NOT AVBL
GOLDSBORO      CLEAR     73  55  51 SW13      29.61R
WASHINGTON     PTCLDY    71  62  73 SW8       29.60R
GREENVILLE     PTCLDY    73  54  49 SW10G20   29.64R
NEW BERN       CLEAR     67  60  78 S13       29.65R
WILMINGTON     CLEAR     66  59  78 SW13      29.68R
$$

VAZ048-260100-
ELSEWHERE

CITY           SKY/WX    TMP DP  RH WIND       PRES   REMARKS
HARRISBURG PA  CLOUDY    49  42  77 W5        29.63R
BALTIMORE      PTCLDY    52  39  61 NW13      29.62R
ANNAPOLIS      MOCLDY    55  40  56 NW10      29.62R
ANDREWS AFB    PTCLDY    53  38  56 NW12      29.62R
PHILADELPHIA   LGT RAIN  51  48  89 NW13      29.63R
HENDERSON NC   PTCLDY    59  36  43 NW9G16    29.66R
GREENSBORO     PTCLDY    58  25  28 NW20      29.72R
ROCKY MOUNT    CLEAR     72  54  53 SW12      29.60R
$$

VAZ100-260100-
MARINE

STATION/POSITION TIME  TEMP    WIND        PRES    WAVE   SWELL
                       AIR SEA DIR/SP/G            HT/PER HT/PER
                 (UTC) (F)     (DEG/KT/KT) (MB)    (FT/S) (FT/S)
CAPE MAY NJ      2342   48 48  300/  8/ 11 1001.8R
LEWES DE         2348          300/ 15/ 17 1002.8R
OCEAN-CITY-INLET 2348          300/ 11/ 15 1002.7R
WACHAPREAGUE VA  2342   57 58  270/  5/  7 1000.9R
THOMAS POINT MD  0000   55 45  320/ 13/ 15   N/A
GOOSES REEF MD   2350   50      10/  8/ 12 1003.7R
COVE POINT MD    2342   51     360/ 12/ 18 1003.5R
SOLOMONS ISLAND  2348          340/ 10/ 15   N/A
BISHOPS HEAD MD  2342   54 54  330/ 16/ 20 1003.0R
PINEY POINT MD   2348          360/ 12/ 13   N/A
POTOMAC MD       2350   54     360/ 10/ 14 1001.5R
CAMBRIDGE MD     2342   54 47  330/ 11/ 13 1002.4R
LEWISETTA VA     2342   55 50  360/  7/  9 1002.2R
RAPPAHANNOCK LGT 2348          290/ 17/ 18 1001.7F
YORK RVR RNG VA  2342   59     310/ 15/ 17 1000.3R
YORKTOWN VA      2342      49  280/ 11/ 19 1001.2R
JAMESTOWN VA     2350          300/  8/ 10   N/A
DOMINION TERM VA 2342   58     320/ 12/ 14 1001.5R
KIPTOPEKE VA     2348      52  340/  6/  7   N/A
CHES BAY BRIDGE  2336   63 48  300/ 22/ 27 1000.4R
CAPE HENRY VA    2336   72     220/ 12/ 19   N/A
WILLOUBY STN VA  2336          300/ 16/ 17 1001.9R
S CRANEY ISL VA  2336   66     270/  7/ 14 1001.0R
CAPE HENRY BUOY  2342      50                N/A     5/10   2/11
OFFSHORE WE BUOY 2321      49                N/A     6/11   2/11
64NM E OF VA BCH 2350   61 53  200/ 21/ 25 1000.8R   6/11   5/11
DUCK PIER NC     2336   67 50  200/ 17/ 21 1000.8R
44100 DUCK FRF   2335      51                N/A     5/10   2/11
44056 DUCK FRF   2330      51                N/A     5/10   2/11
OREGON INLET NC  2348          190/ 22/ 26 1002.3R
HATTERAS NC      2336   69 64  210/ 16/ 23 1003.4R
DIAMOND SHLS NC  2350   74 76  210/ 27/ 33 1003.4F   8/10   5/10
CAPE LOOKOUT NC  2300   69     210/ 13/ 18 1004.1F
$$




USA.gov is the U.S. government's official web portal to all federal, state and local government web resources and services.